Weather History for New Bedford, MA

Change the Weather History Date:

Saturday, May 18, 2013

  Actual Average Record
Temperature  
Mean Temperature 56 °F -  
Max Temperature 71 °F 67 °F 84 °F (1977)
Min Temperature 41 °F 50 °F 30 °F (2003)
Degree Days  
Heating Degree Days 10    
Growing Degree Days 6 (Base 50)    
Moisture  
Dew Point 45 °F    
Average Humidity 73    
Maximum Humidity 97    
Minimum Humidity 31    
Precipitation  
Precipitation 0.00 in - - ()
Sea Level Pressure  
Sea Level Pressure 30.27 in    
Wind  
Wind Speed 3 mph (SW)    
Max Wind Speed 15 mph    
Max Gust Speed 21 mph    
Visibility 10 miles    
Events      
Averages and records for this station are not official NWS values.
T = Trace of Precipitation, MM = Missing Value Source: NWS Daily Summary

Daily Weather History Graph

Daily Weather History Graph

Search for Another Location

Airport:

Trip Planner

Search our weather history database for the weather conditions in past years. The results will help you decide how hot, cold, wet, or windy it might be!

Date:

Astronomy

May. 18, 2013 Rise Set
Actual Time 5:21 AM EDT 7:59 PM EDT
Civil Twilight 4:49 AM EDT 8:32 PM EDT
Nautical Twilight 4:09 AM EDT 9:12 PM EDT
Astronomical Twilight 3:23 AM EDT 9:58 PM EDT
Moon 12:54 PM EDT (5/18) 1:18 AM EDT (5/18)
Length of Visible Light 15h 42m
Length of Day
14h 38m
First Quarter, 55% of the Moon is Illuminated
May 18
First Quarter
May 25
Full
May 31
Last Quarter
Jun 8
New
Jun 16
First Quarter

Hourly Weather History & Observations

Time (EDT) Temp. Dew Point Humidity Pressure Visibility Wind Dir Wind Speed Gust Speed Precip Events Conditions
12:53 AM 44.1 °F 42.1 °F 93% 30.23 in 10.0 mi Calm Calm - N/A   Clear
1:53 AM 44.1 °F 42.1 °F 93% 30.23 in 10.0 mi Calm Calm - N/A   Clear
2:53 AM 44.1 °F 42.1 °F 93% 30.22 in 10.0 mi Calm Calm - N/A   Clear
3:53 AM 43.0 °F 42.1 °F 97% 30.24 in 10.0 mi Calm Calm - N/A   Clear
4:53 AM 42.1 °F 41.0 °F 96% 30.25 in 10.0 mi Calm Calm - N/A   Clear
5:25 AM 41.0 °F 39.2 °F 93% 30.26 in 1.8 mi Calm Calm - N/A   Clear
5:45 AM 41.0 °F 39.2 °F 93% 30.26 in 5.0 mi Calm Calm - N/A   Clear
5:53 AM 41.0 °F 39.0 °F 93% 30.26 in 10.0 mi Calm Calm - N/A   Clear
6:53 AM 48.0 °F 46.0 °F 93% 30.28 in 10.0 mi Calm Calm - N/A   Clear
7:53 AM 57.0 °F 48.0 °F 72% 30.30 in 10.0 mi West 5.8 mph - N/A   Clear
8:53 AM 63.0 °F 46.0 °F 54% 30.30 in 10.0 mi West 9.2 mph - N/A   Clear
9:53 AM 64.9 °F 44.1 °F 47% 30.31 in 10.0 mi SW 6.9 mph - N/A   Mostly Cloudy
10:53 AM 66.9 °F 41.0 °F 39% 30.30 in 10.0 mi Variable 3.5 mph - N/A   Mostly Cloudy
11:53 AM 70.0 °F 37.9 °F 31% 30.29 in 10.0 mi Calm Calm - N/A   Clear
12:53 PM 68.0 °F 48.0 °F 49% 30.27 in 10.0 mi South 12.7 mph 18.4 mph N/A   Overcast
1:53 PM 66.0 °F 48.9 °F 54% 30.27 in 10.0 mi South 8.1 mph - N/A   Mostly Cloudy
2:53 PM 66.2 °F 50.0 °F 56% 30.27 in 10.0 mi South 8.1 mph - N/A   Mostly Cloudy
3:53 PM 64.0 °F 48.0 °F 56% 30.27 in 10.0 mi SW 9.2 mph - N/A   Overcast
4:53 PM 64.0 °F 48.9 °F 58% 30.27 in 10.0 mi WSW 15.0 mph 20.7 mph N/A   Overcast
5:53 PM 63.0 °F 48.0 °F 58% 30.27 in 10.0 mi SW 12.7 mph - N/A   Scattered Clouds
6:53 PM 61.0 °F 48.9 °F 64% 30.27 in 10.0 mi SW 11.5 mph - N/A   Clear
7:53 PM 57.9 °F 50.0 °F 75% 30.30 in 10.0 mi SSW 9.2 mph - N/A   Clear
8:53 PM 57.0 °F 50.0 °F 77% 30.30 in 10.0 mi SW 8.1 mph - N/A   Clear
9:53 PM 55.0 °F 50.0 °F 83% 30.31 in 10.0 mi SSW 6.9 mph - N/A   Clear
10:53 PM 54.0 °F 50.0 °F 86% 30.31 in 10.0 mi WSW 5.8 mph - N/A   Clear
11:53 PM 53.1 °F 50.0 °F 89% 30.31 in 10.0 mi SW 5.8 mph - N/A   Clear